星链-32704 (STARLINK-32704)

导读 | 豆包AI

STARLINK-32704是美国SpaceX公司星链(Starlink)星座中的一颗低轨宽带卫星,于2025年1月24日成功发射,国际编号为2025-018W,轨道倾角约94.1度,是第二代星链星座扩容部署的组成部分。它旨在为全球提供高速低延迟互联网服务,尤其覆盖偏远、网络基础设施匮乏区域,目前已在轨正常运行,星链项目获FCC批准持续扩张,总规模已接近一万五千颗。

基本信息
目录编号:
62826
目录名称:
STARLINK-32704
国际标识:
2025-018W
轨道中心:
EARTH
卫星名称:
星链-32704
卫星全名:
星链-32704 (STARLINK-32704)
卫星状态:
在轨 (已飞行415 天)
发射日期:
2025-01-24 UTC
国别 :
美国 (US)
星等 :
--
轨道信息
数据来源 国际轨道数据
星历时间: 2026-03-13T23:25:10+0800
1天前
查看轨道信息
半长轴: 6853.34km
偏心率: 0.0001349
轨道倾角: 53.158°
近地点辐角 92.406°
升交点赤经 291.253°
平近点角 267.710°
近地点: 474.278km
远地点: 476.128km
周期: 94.105分钟
每日圈数: 15.302042
详细信息
固有亮度:
5
最大亮度:
2.5
卫星平台:
Starlink V1.0
覆盖范围:
全球
运营商:
太空探索技术公司
运营商所在国:
美国
制造商(研发单位):
太空探索技术公司
制造商所在国:
美国
使用方式:
暂无
卫星简介
Starlink 计划是 SpaceX 推出的全球卫星互联网项目,通过发射低轨道卫星,为全球尤其是偏远地区提供高速、低延迟的互联网服务。自 2019 年起,Starlink 已部署数千颗卫星,旨在缩小全球数字鸿沟,推动互联网普及。该项目还为军事、航空等行业提供通信支持,带来广泛经济效益。
2D轨道图
3D轨道图
轨道高度分析图
轨道倾角分析图
轨道综合分析图
查看轨道综合分析图